Orbital Elements at Epoch 2459200.5 (2020-Dec-17.0) TDB
Reference: JPL 16 (heliocentric ecliptic J2000)
Element | Value | Uncertainty (1-sigma) | Units |
e | .1598274702138826 | 5.4055e-08 | |
a | 2.40154919404525 | 1.5368e-08 | au |
q | 2.017715661766809 | 1.2307e-07 | au |
i | 2.356967313453124 | 4.0272e-06 | deg |
node | 183.5423777874104 | 0.00011782 | deg |
peri | 69.52368876579423 | 0.00011854 | deg |
M | 173.8979786023148 | 1.3054e-05 | deg |
tp | 2458543.859461676043 (2019-Mar-01.35946168) | 4.7626e-05 | TDB |
period | 1359.363666539353 3.72 | 1.3048e-05 3.572e-08 | d yr |
n | .2648297941613244 | 2.5421e-09 | deg/d |
Q | 2.785382726323691 | 1.7824e-08 | au |
|
| | Orbit Determination Parameters
Additional Information
|